Location: McFarlands Corners
(41.4117°N, 81.3382°W)
Time: 17:17:05
(UTC+00:00)

SR - Pass Details

Date: 17 February 2026
Orbit: 572 x 849 km, 66.7° (Epoch: 12 March)

Event Time Altitude Azimuth Distance (km) Brightness Sun altitude
Rises 18:58:21 0° 329° (NNW) 3,093 ? 33.8°
Reaches altitude 10° 19:00:37 10° 328° (NNW) 2,214 ? 33.6°
Maximum altitude 19:05:42 82° 242° (WSW) 776 ? 33.2°
Drops below altitude 10° 19:11:10 10° 155° (SSE) 2,373 ? 32.8°
Sets 19:13:40 0° 155° (SSE) 3,332 ? 32.5°
